sat.trackr.live / text

‹ back to catalog

FLOCK 4BE-34

NORAD 60495 · 2024-149AD

PAYLOAD ACTIVE UNKNOWN

§ Identity

Operator
Country
US
Launch date
2024-08-16
Launch site
AFWTR
Launch vehicle
Mass (kg)
RCS (m²)

Purposes: earth_obs

External: N2YO · Heavens-Above · Gunter

§ Orbital elements

Epoch: 2026-09-19T11:17:50.497440Z

Period
93.23 min
Inclination
97.3728°
Eccentricity
0.0002198
Mean motion
15.44503260 rev/d
Perigee alt
431.3 km
Apogee alt
434.3 km
Semi-major
6,811.0 km
B*
6.2053e-4
RAAN
347.9798°
Arg perigee
301.1380°
Mean anomaly
58.9653°
Rev number
11,686

§ Raw data

FLOCK 4BE-341 60495U 24149AD  26262.47072335  .00028747  00000+0  62053-3 0  99992 60495  97.3728 347.9798 0002198 301.1380  58.9653 15.44503260116863

JSON: /api/v1/satellites/60495 · /tle

For live sub-satellite position, see the globe view (requires WebGL).

§ Visibility from observer

Set your observer location to see the next 7 days of passes ≥ 10°. The values pass through the URL so the page stays shareable.

No JS? Fill the form by hand. The geolocation button needs JavaScript.